EN

Hourly Weather Bolshie Setki

Today, 22 October, Thursday

Time Temperature Precipitation Wind Pressure Humidity
00:00 +3°C° 0 mm 1 mps 749 mmHg 97%
01:00 +3°C° 0 mm 1 mps 750 mmHg 97%
02:00 +3°C° 0 mm 1 mps 750 mmHg 97%
03:00 +2°C° 0 mm 2 mps 749 mmHg 97%
04:00 +2°C° 0 mm 2 mps 749 mmHg 97%
05:00 +2°C° 0 mm 2 mps 749 mmHg 97%
06:00 +3°C° 0 mm 2 mps 749 mmHg 96%
07:00 +3°C° 0 mm 2 mps 749 mmHg 95%
08:00 +3°C° 0 mm 2 mps 749 mmHg 95%
09:00 +2°C° 0 mm 3 mps 748 mmHg 93%
10:00 +3°C° 0 mm 3 mps 748 mmHg 92%
11:00 +3°C° 0 mm 3 mps 747 mmHg 90%
12:00 +4°C° 0.1 mm 4 mps 747 mmHg 90%
13:00 +4°C° 0.1 mm 4 mps 746 mmHg 89%
14:00 +5°C° 0.1 mm 4 mps 746 mmHg 88%
15:00 +5°C° 0.9 mm 4 mps 745 mmHg 90%
16:00 +5°C° 0.9 mm 4 mps 744 mmHg 92%
17:00 +5°C° 0.9 mm 5 mps 743 mmHg 95%
18:00 +5°C° 0.8 mm 5 mps 742 mmHg 95%
19:00 +5°C° 0.8 mm 4 mps 741 mmHg 95%
20:00 +6°C° 0.8 mm 4 mps 741 mmHg 95%
21:00 +6°C° 0.8 mm 4 mps 740 mmHg 95%
22:00 +6°C° 0.8 mm 4 mps 739 mmHg 96%
23:00 +6°C° 0.8 mm 4 mps 738 mmHg 96%

Tomorrow, 23 October, Friday

Time Temperature Precipitation Wind Pressure Humidity
00:00 +7°C° 1 mm 4 mps 737 mmHg 96%
01:00 +8°C° 1 mm 4 mps 737 mmHg 95%
02:00 +9°C° 1 mm 5 mps 737 mmHg 95%
03:00 +9°C° 0.4 mm 5 mps 737 mmHg 92%
04:00 +9°C° 0.4 mm 6 mps 737 mmHg 88%
05:00 +10°C° 0.4 mm 6 mps 736 mmHg 85%
06:00 +10°C° 0 mm 6 mps 737 mmHg 84%
07:00 +9°C° 0 mm 6 mps 737 mmHg 83%
08:00 +9°C° 0 mm 6 mps 737 mmHg 81%
09:00 +9°C° 0.1 mm 5 mps 738 mmHg 82%
10:00 +10°C° 0.1 mm 5 mps 738 mmHg 82%
11:00 +10°C° 0.1 mm 5 mps 739 mmHg 82%
12:00 +10°C° 0 mm 5 mps 739 mmHg 81%
13:00 +10°C° 0 mm 5 mps 739 mmHg 80%
14:00 +10°C° 0 mm 5 mps 739 mmHg 78%
15:00 +10°C° 0 mm 5 mps 738 mmHg 81%
16:00 +9°C° 0 mm 5 mps 738 mmHg 84%
17:00 +10°C° 0 mm 4 mps 738 mmHg 87%
18:00 +10°C° 0.4 mm 4 mps 737 mmHg 88%
19:00 +10°C° 0.4 mm 4 mps 737 mmHg 89%
20:00 +10°C° 0.4 mm 4 mps 737 mmHg 90%
21:00 +10°C° 0.2 mm 4 mps 737 mmHg 89%
22:00 +10°C° 0.2 mm 4 mps 736 mmHg 88%
23:00 +8°C° 0.2 mm 5 mps 736 mmHg 87%

Day after tomorrow, 24 October, Saturday

Time Temperature Precipitation Wind Pressure Humidity
00:00 +8°C° 0 mm 5 mps 737 mmHg 86%
01:00 +8°C° 0 mm 5 mps 737 mmHg 84%
02:00 +8°C° 0 mm 5 mps 737 mmHg 83%
03:00 +8°C° 0 mm 5 mps 738 mmHg 83%
04:00 +7°C° 0 mm 5 mps 738 mmHg 83%
05:00 +7°C° 0 mm 5 mps 738 mmHg 83%
06:00 +7°C° 0 mm 4 mps 739 mmHg 84%
07:00 +7°C° 0 mm 4 mps 739 mmHg 84%
08:00 +7°C° 0 mm 4 mps 740 mmHg 85%
09:00 +7°C° 0 mm 4 mps 740 mmHg 81%
10:00 +8°C° 0 mm 4 mps 741 mmHg 76%
11:00 +8°C° 0 mm 4 mps 741 mmHg 72%
12:00 +8°C° 0 mm 4 mps 741 mmHg 72%
13:00 +8°C° 0 mm 4 mps 742 mmHg 71%
14:00 +8°C° 0 mm 4 mps 742 mmHg 71%
15:00 +8°C° 0 mm 3 mps 742 mmHg 75%
16:00 +7°C° 0 mm 3 mps 742 mmHg 78%
17:00 +6°C° 0 mm 2 mps 743 mmHg 82%
18:00 +6°C° 0 mm 2 mps 743 mmHg 84%
19:00 +6°C° 0 mm 1 mps 743 mmHg 87%
20:00 +6°C° 0 mm 1 mps 743 mmHg 90%
21:00 +6°C° 0 mm 1 mps 743 mmHg 91%
22:00 +5°C° 0 mm 1 mps 743 mmHg 92%
23:00 +4°C° 0 mm 0 mps 743 mmHg 93%

25 October, Sunday

Time Temperature Precipitation Wind Pressure Humidity
00:00 +4°C° 0 mm 0 mps 743 mmHg 93%
01:00 +4°C° 0 mm 0 mps 743 mmHg 93%
02:00 +4°C° 0 mm 0 mps 743 mmHg 93%
03:00 +4°C° 0 mm 0 mps 744 mmHg 93%
04:00 +4°C° 0 mm 0 mps 744 mmHg 94%
05:00 +4°C° 0 mm 0 mps 744 mmHg 94%
06:00 +5°C° 0 mm 0 mps 744 mmHg 94%
07:00 +6°C° 0 mm 1 mps 744 mmHg 93%
08:00 +6°C° 0 mm 1 mps 744 mmHg 93%
09:00 +7°C° 0 mm 1 mps 744 mmHg 90%
10:00 +7°C° 0 mm 1 mps 745 mmHg 87%
11:00 +7°C° 0 mm 0 mps 745 mmHg 84%
12:00 +7°C° 0 mm 0 mps 745 mmHg 82%
13:00 +7°C° 0 mm 0 mps 745 mmHg 81%
14:00 +8°C° 0 mm 0 mps 745 mmHg 79%
15:00 +7°C° 0 mm 0 mps 746 mmHg 83%
16:00 +6°C° 0 mm 0 mps 746 mmHg 87%
17:00 +5°C° 0 mm 0 mps 747 mmHg 91%
18:00 +4°C° 0 mm 0 mps 747 mmHg 92%
19:00 +4°C° 0 mm 0 mps 747 mmHg 92%
20:00 +4°C° 0 mm 0 mps 748 mmHg 92%
21:00 +4°C° 0.1 mm 0 mps 748 mmHg 92%
22:00 +5°C° 0.1 mm 0 mps 748 mmHg 91%
23:00 +5°C° 0.1 mm 0 mps 749 mmHg 91%

26 October, Monday

Time Temperature Precipitation Wind Pressure Humidity
00:00 +5°C° 0.1 mm 0 mps 749 mmHg 91%
01:00 +5°C° 0.1 mm 0 mps 749 mmHg 92%
02:00 +6°C° 0.1 mm 1 mps 750 mmHg 93%
03:00 +5°C° 0 mm 0 mps 750 mmHg 93%
04:00 +5°C° 0 mm 0 mps 751 mmHg 94%
05:00 +5°C° 0 mm 0 mps 751 mmHg 94%
06:00 +5°C° 0 mm 0 mps 751 mmHg 94%
07:00 +5°C° 0 mm 0 mps 752 mmHg 94%
08:00 +5°C° 0 mm 0 mps 752 mmHg 93%
09:00 +6°C° 0 mm 0 mps 753 mmHg 90%
10:00 +8°C° 0 mm 1 mps 753 mmHg 86%
11:00 +8°C° 0 mm 1 mps 754 mmHg 83%
12:00 +8°C° 0 mm 1 mps 754 mmHg 81%
13:00 +8°C° 0 mm 1 mps 754 mmHg 80%
14:00 +8°C° 0 mm 1 mps 754 mmHg 79%
15:00 +8°C° 0 mm 1 mps 754 mmHg 81%
16:00 +7°C° 0 mm 1 mps 755 mmHg 83%
17:00 +6°C° 0 mm 1 mps 755 mmHg 85%
18:00 +6°C° 0 mm 1 mps 755 mmHg 87%
19:00 +4°C° 0 mm 0 mps 756 mmHg 89%
20:00 +3°C° 0 mm 0 mps 756 mmHg 91%
21:00 +3°C° 0 mm 0 mps 756 mmHg 92%
22:00 +3°C° 0 mm 0 mps 756 mmHg 92%
23:00 +3°C° 0 mm 0 mps 757 mmHg 92%

27 October, Tuesday

Time Temperature Precipitation Wind Pressure Humidity
00:00 +4°C° 0 mm 1 mps 757 mmHg 93%
01:00 +3°C° 0 mm 1 mps 757 mmHg 93%
02:00 +3°C° 0 mm 1 mps 757 mmHg 94%
03:00 +3°C° 0 mm 1 mps 757 mmHg 95%
04:00 +3°C° 0 mm 1 mps 757 mmHg 95%
05:00 +3°C° 0 mm 1 mps 757 mmHg 95%
06:00 +3°C° 0 mm 1 mps 758 mmHg 95%
07:00 +3°C° 0 mm 2 mps 758 mmHg 94%
08:00 +3°C° 0 mm 2 mps 758 mmHg 94%
09:00 +4°C° 0 mm 2 mps 758 mmHg 89%
10:00 +5°C° 0 mm 2 mps 758 mmHg 85%
11:00 +7°C° 0 mm 2 mps 758 mmHg 80%
12:00 +7°C° 0 mm 2 mps 758 mmHg 80%
13:00 +7°C° 0 mm 3 mps 758 mmHg 80%
14:00 +7°C° 0 mm 3 mps 758 mmHg 79%
15:00 +7°C° 0 mm 3 mps 758 mmHg 84%
16:00 +5°C° 0 mm 3 mps 758 mmHg 88%
17:00 +4°C° 0 mm 3 mps 757 mmHg 92%
18:00 +4°C° 0 mm 3 mps 757 mmHg 90%
19:00 +4°C° 0 mm 3 mps 757 mmHg 88%
20:00 +4°C° 0 mm 3 mps 757 mmHg 86%
21:00 +5°C° 0 mm 3 mps 757 mmHg 86%
22:00 +5°C° 0 mm 3 mps 757 mmHg 85%
23:00 +5°C° 0 mm 3 mps 757 mmHg 85%
Show more